FW1970 Weather Reports


time (UTC)temp
F
wind
direction
speed
knots
gust
knots
rain 1hr
in
rain 24hr
in
rain mn
in
humidity
%
barometer
mb
20260504041551 49 238 2.6 7.0 0.00 0.00 0.00 38 1013.2
20260504040049 50 264 2.6 6.1 0.00 0.00 0.00 37 1013.1
20260504034551 50 223 2.6 6.1 0.00 0.00 0.00 37 1013.1
20260504033047 50 207 2.6 7.0 0.00 0.00 0.00 37 1013.0
20260504031548 50 205 0.9 6.1 0.00 0.00 0.00 37 1013.2
20260504030044 50 213 1.7 4.3 0.00 0.00 0.00 37 1013.3
20260504024545 51 213 0.9 5.2 0.00 0.00 0.00 36 1013.4
20260504023043 51 215 2.6 5.2 0.00 0.00 0.00 36 1013.4
20260504021542 52 219 2.6 5.2 0.00 0.00 0.00 34 1013.6
20260504020124 52 219 3.5 5.2 0.00 0.00 0.00 34 1013.4
20260504014555 52 219 2.6 4.3 0.00 0.00 0.00 34 1013.4
20260504013050 52 219 1.7 3.5 0.00 0.00 0.00 33 1013.4
20260504011540 53 219 1.7 3.5 0.00 0.00 0.00 32 1013.4
20260504010044 54 219 2.6 5.2 0.00 0.00 0.00 31 1013.4
20260504004600 54 217 3.5 6.1 0.00 0.00 0.00 30 1013.4
20260504003047 54 221 2.6 7.0 0.00 0.00 0.00 30 1013.4
20260504001607 55 232 3.5 8.7 0.00 0.00 0.00 29 1013.3
20260504000041 55 234 4.3 11.3 0.00 0.00 0.00 29 1013.3
20260503234536 56 266 6.1 15.6 0.00 0.00 0.00 28 1013.3
20260503233040 56 225 7.8 17.4 0.00 0.00 0.00 26 1013.4
20260503231534 56 217 7.8 13.0 0.00 0.00 0.00 26 1013.4
20260503230036 57 235 10.4 20.0 0.00 0.00 0.00 25 1013.6
20260503224533 57 360 8.7 16.5 0.00 0.00 0.00 25 1013.5
20260503223032 57 211 8.7 13.9 0.00 0.00 0.00 26 1013.5
20260503221532 57 233 10.4 17.4 0.00 0.00 0.00 25 1013.9
20260503220041 58 238 10.4 16.5 0.00 0.00 0.00 24 1013.8
20260503214531 57 221 9.6 16.5 0.00 0.00 0.00 25 1013.7
20260503213031 58 286 10.4 17.4 0.00 0.00 0.00 24 1013.5
20260503211529 57 265 8.7 16.5 0.00 0.00 0.00 26 1013.5
20260503210027 57 262 7.0 15.6 0.00 0.00 0.00 26 1013.6
20260503204526 57 242 9.6 15.6 0.00 0.00 0.00 26 1014.1
20260503203042 57 269 10.4 14.8 0.00 0.00 0.00 24 1014.1
20260503201526 56 217 6.1 13.9 0.00 0.00 0.00 28 1014.4
20260503200023 58 207 8.7 14.8 0.00 0.00 0.00 26 1014.5
20260503194534 57 256 9.6 14.8 0.00 0.00 0.00 26 1014.7
20260503193021 57 243 12.2 16.5 0.00 0.00 0.00 24 1014.8
20260503191517 57 360 13.0 18.2 0.00 0.00 0.00 25 1015.1
20260503190023 56 277 10.4 17.4 0.00 0.00 0.00 27 1015.4
20260503184522 57 280 8.7 18.2 0.00 0.00 0.00 26 1015.5
20260503183010 56 279 7.8 17.4 0.00 0.00 0.00 27 1015.8
20260503181509 55 298 7.8 15.6 0.00 0.00 0.00 28 1015.7
20260503180008 55 267 7.0 10.4 0.00 0.00 0.00 28 1016.0
20260503174505 55 212 7.8 13.0 0.00 0.00 0.00 27 1016.1
20260503173004 53 265 8.7 20.0 0.00 0.00 0.00 28 1016.5
20260503171503 53 302 9.6 18.2 0.00 0.00 0.00 30 1016.5
20260503081524 35 282 2.6 4.3 0.00 0.00 0.00 69 1016.5
20260503071505 36 284 1.7 3.5 0.00 0.00 0.00 68 1016.2
20260503060118 36 325 0.9 2.6 0.00 0.00 0.00 67 1016.2
20260503054613 36 325 0.9 2.6 0.00 0.00 0.00 67 1016.3
20260503053055 36 325 0.0 2.6 0.00 0.00 0.00 67 1016.5
20260503051553 36 325 0.9 2.6 0.00 0.00 0.00 67 1016.6
20260503050053 36 327 0.9 2.6 0.00 0.00 0.00 67 1016.6
20260503044552 36 327 1.7 3.5 0.00 0.00 0.00 67 1016.6
20260503043050 37 333 1.7 3.5 0.00 0.00 0.00 66 1016.6